Year,Month,Day,Hour,Minute,Value (Times are PST for temperature in C)
2021,06,27,00,00,23.50
2021,06,27,00,01,23.50
2021,06,27,00,02,23.40
2021,06,27,00,03,23.40
2021,06,27,00,04,23.40
2021,06,27,00,05,23.40
2021,06,27,00,06,23.40
2021,06,27,00,07,23.40
2021,06,27,00,08,23.40
2021,06,27,00,09,23.40
2021,06,27,00,10,23.30
2021,06,27,00,11,23.30
2021,06,27,00,12,23.30
2021,06,27,00,13,23.30
2021,06,27,00,14,23.30
2021,06,27,00,15,23.30
2021,06,27,00,16,23.30
2021,06,27,00,17,23.30
2021,06,27,00,18,23.30
2021,06,27,00,19,23.40
2021,06,27,00,20,23.40
2021,06,27,00,21,23.40
2021,06,27,00,22,23.40
2021,06,27,00,23,23.40
2021,06,27,00,24,23.40
2021,06,27,00,25,23.40
2021,06,27,00,26,23.40
2021,06,27,00,27,23.40
2021,06,27,00,28,23.40
2021,06,27,00,29,23.40
2021,06,27,00,30,23.40
2021,06,27,00,31,23.40
2021,06,27,00,32,23.40
2021,06,27,00,33,23.40
2021,06,27,00,34,23.40
2021,06,27,00,35,23.40
2021,06,27,00,36,23.30
2021,06,27,00,37,23.30
2021,06,27,00,38,23.30
2021,06,27,00,39,23.20
2021,06,27,00,40,23.20
2021,06,27,00,41,23.20
2021,06,27,00,42,23.10
2021,06,27,00,43,23.10
2021,06,27,00,44,23.10
2021,06,27,00,45,23.10
2021,06,27,00,46,23.00
2021,06,27,00,47,23.00
2021,06,27,00,48,23.00
2021,06,27,00,49,23.00
2021,06,27,00,50,23.00
2021,06,27,00,51,23.00
2021,06,27,00,52,23.00
2021,06,27,00,53,22.90
2021,06,27,00,54,22.90
2021,06,27,00,55,22.90
2021,06,27,00,56,22.90
2021,06,27,00,57,22.90
2021,06,27,00,58,22.90
2021,06,27,00,59,22.90
2021,06,27,01,00,22.90
2021,06,27,01,01,22.90
2021,06,27,01,02,23.00
2021,06,27,01,03,23.00
2021,06,27,01,04,23.00
2021,06,27,01,05,23.00
2021,06,27,01,06,23.00
2021,06,27,01,07,23.00
2021,06,27,01,08,23.00
2021,06,27,01,09,23.00
2021,06,27,01,10,23.10
2021,06,27,01,11,23.10
2021,06,27,01,12,23.10
2021,06,27,01,13,23.10
2021,06,27,01,14,23.10
2021,06,27,01,15,23.10
2021,06,27,01,16,23.00
2021,06,27,01,17,23.00
2021,06,27,01,18,23.00
2021,06,27,01,19,22.90
2021,06,27,01,20,22.90
2021,06,27,01,21,22.90
2021,06,27,01,22,22.90
2021,06,27,01,23,22.90
2021,06,27,01,24,22.80
2021,06,27,01,25,22.80
2021,06,27,01,26,22.80
2021,06,27,01,27,22.80
2021,06,27,01,28,22.80
2021,06,27,01,29,22.90
2021,06,27,01,30,22.90
2021,06,27,01,31,23.00
2021,06,27,01,32,23.00
2021,06,27,01,33,23.10
2021,06,27,01,34,23.10
2021,06,27,01,35,23.10
2021,06,27,01,36,23.10
2021,06,27,01,37,23.10
2021,06,27,01,38,23.10
2021,06,27,01,39,23.20
2021,06,27,01,40,23.20
2021,06,27,01,41,23.20
2021,06,27,01,42,23.20
2021,06,27,01,43,23.20
2021,06,27,01,44,23.20
2021,06,27,01,45,23.10
2021,06,27,01,46,23.10
2021,06,27,01,47,23.10
2021,06,27,01,48,23.10
2021,06,27,01,49,23.00
2021,06,27,01,50,23.00
2021,06,27,01,51,23.00
2021,06,27,01,52,22.90
2021,06,27,01,53,22.90
2021,06,27,01,54,22.90
2021,06,27,01,55,22.80
2021,06,27,01,56,22.80
2021,06,27,01,57,22.90
2021,06,27,01,58,22.90
2021,06,27,01,59,22.90
2021,06,27,02,00,22.90
2021,06,27,02,01,22.90
2021,06,27,02,02,22.90
2021,06,27,02,03,22.90
2021,06,27,02,04,22.80
2021,06,27,02,05,22.80
2021,06,27,02,06,22.80
2021,06,27,02,07,22.70
2021,06,27,02,08,22.50
2021,06,27,02,09,22.40
2021,06,27,02,10,22.20
2021,06,27,02,11,22.20
2021,06,27,02,12,22.10
2021,06,27,02,13,22.00
2021,06,27,02,14,21.90
2021,06,27,02,15,21.80
2021,06,27,02,16,21.80
2021,06,27,02,17,21.80
2021,06,27,02,18,21.70
2021,06,27,02,19,21.60
2021,06,27,02,20,21.60
2021,06,27,02,21,21.60
2021,06,27,02,22,21.50
2021,06,27,02,23,21.50
2021,06,27,02,24,21.50
2021,06,27,02,25,21.50
2021,06,27,02,26,21.50
2021,06,27,02,27,21.50
2021,06,27,02,28,21.60
2021,06,27,02,29,21.60
2021,06,27,02,30,21.70
2021,06,27,02,31,21.70
2021,06,27,02,32,21.80
2021,06,27,02,33,21.80
2021,06,27,02,34,21.90
2021,06,27,02,35,21.90
2021,06,27,02,36,22.00
2021,06,27,02,37,22.00
2021,06,27,02,38,22.00
2021,06,27,02,39,22.00
2021,06,27,02,40,22.10
2021,06,27,02,41,22.10
2021,06,27,02,42,22.10
2021,06,27,02,43,22.10
2021,06,27,02,44,22.20
2021,06,27,02,45,22.20
2021,06,27,02,46,22.20
2021,06,27,02,47,22.20
2021,06,27,02,48,22.20
2021,06,27,02,49,22.20
2021,06,27,02,50,22.20
2021,06,27,02,51,22.30
2021,06,27,02,52,22.30
2021,06,27,02,53,22.30
2021,06,27,02,54,22.30
2021,06,27,02,55,22.30
2021,06,27,02,56,22.30
2021,06,27,02,57,22.40
2021,06,27,02,58,22.30
2021,06,27,02,59,22.30
2021,06,27,03,00,22.30
2021,06,27,03,01,22.30
2021,06,27,03,02,22.30
2021,06,27,03,03,22.30
2021,06,27,03,04,22.20
2021,06,27,03,05,22.10
2021,06,27,03,06,21.90
2021,06,27,03,07,21.90
2021,06,27,03,08,21.80
2021,06,27,03,09,21.70
2021,06,27,03,10,21.60
2021,06,27,03,11,21.50
2021,06,27,03,12,21.40
2021,06,27,03,13,21.40
2021,06,27,03,14,21.30
2021,06,27,03,15,21.30
2021,06,27,03,16,21.30
2021,06,27,03,17,21.20
2021,06,27,03,18,21.20
2021,06,27,03,19,21.20
2021,06,27,03,20,21.20
2021,06,27,03,21,21.20
2021,06,27,03,22,21.20
2021,06,27,03,23,21.30
2021,06,27,03,24,21.30
2021,06,27,03,25,21.30
2021,06,27,03,26,21.40
2021,06,27,03,27,21.40
2021,06,27,03,28,21.40
2021,06,27,03,29,21.50
2021,06,27,03,30,21.50
2021,06,27,03,31,21.50
2021,06,27,03,32,21.50
2021,06,27,03,33,21.60
2021,06,27,03,34,21.60
2021,06,27,03,35,21.60
2021,06,27,03,36,21.70
2021,06,27,03,37,21.70
2021,06,27,03,38,21.60
2021,06,27,03,39,21.40
2021,06,27,03,40,21.30
2021,06,27,03,41,21.30
2021,06,27,03,42,21.20
2021,06,27,03,43,21.10
2021,06,27,03,44,21.10
2021,06,27,03,45,21.00
2021,06,27,03,46,20.90
2021,06,27,03,47,20.80
2021,06,27,03,48,20.80
2021,06,27,03,49,20.70
2021,06,27,03,50,20.60
2021,06,27,03,51,20.60
2021,06,27,03,52,20.60
2021,06,27,03,53,20.50
2021,06,27,03,54,20.50
2021,06,27,03,55,20.40
2021,06,27,03,56,20.40
2021,06,27,03,57,20.30
2021,06,27,03,58,20.30
2021,06,27,03,59,20.30
2021,06,27,04,00,20.30
2021,06,27,04,01,20.30
2021,06,27,04,02,20.30
2021,06,27,04,03,20.30
2021,06,27,04,04,20.30
2021,06,27,04,05,20.30
2021,06,27,04,06,20.30
2021,06,27,04,07,20.30
2021,06,27,04,08,20.30
2021,06,27,04,09,20.30
2021,06,27,04,10,20.30
2021,06,27,04,11,20.30
2021,06,27,04,12,20.30
2021,06,27,04,13,20.40
2021,06,27,04,14,20.40
2021,06,27,04,15,20.50
2021,06,27,04,16,20.50
2021,06,27,04,17,20.50
2021,06,27,04,18,20.50
2021,06,27,04,19,20.50
2021,06,27,04,20,20.50
2021,06,27,04,21,20.50
2021,06,27,04,22,20.40
2021,06,27,04,23,20.40
2021,06,27,04,24,20.40
2021,06,27,04,25,20.40
2021,06,27,04,26,20.40
2021,06,27,04,27,20.40
2021,06,27,04,28,20.40
2021,06,27,04,29,20.40
2021,06,27,04,30,20.40
2021,06,27,04,31,20.40
2021,06,27,04,32,20.40
2021,06,27,04,33,20.40
2021,06,27,04,34,20.40
2021,06,27,04,35,20.40
2021,06,27,04,36,20.40
2021,06,27,04,37,20.40
2021,06,27,04,38,20.50
2021,06,27,04,39,20.50
2021,06,27,04,40,20.60
2021,06,27,04,41,20.60
2021,06,27,04,42,20.60
2021,06,27,04,43,20.70
2021,06,27,04,44,20.70
2021,06,27,04,45,20.70
2021,06,27,04,46,20.70
2021,06,27,04,47,20.80
2021,06,27,04,48,20.80
2021,06,27,04,49,20.90
2021,06,27,04,50,21.10
2021,06,27,04,51,21.30
2021,06,27,04,52,21.50
2021,06,27,04,53,21.70
2021,06,27,04,54,21.90
2021,06,27,04,55,22.10
2021,06,27,04,56,22.20
2021,06,27,04,57,22.30
2021,06,27,04,58,22.40
2021,06,27,04,59,22.50
2021,06,27,05,00,22.60
2021,06,27,05,01,22.70
2021,06,27,05,02,22.80
2021,06,27,05,03,22.90
2021,06,27,05,04,23.00
2021,06,27,05,05,23.10
2021,06,27,05,06,23.20
2021,06,27,05,07,23.20
2021,06,27,05,08,23.30
2021,06,27,05,09,23.30
2021,06,27,05,10,23.30
2021,06,27,05,11,23.40
2021,06,27,05,12,23.30
2021,06,27,05,13,23.40
2021,06,27,05,14,23.40
2021,06,27,05,15,23.30
2021,06,27,05,16,23.30
2021,06,27,05,17,23.30
2021,06,27,05,18,23.30
2021,06,27,05,19,23.30
2021,06,27,05,20,23.30
2021,06,27,05,21,23.30
2021,06,27,05,22,23.30
2021,06,27,05,23,23.30
2021,06,27,05,24,23.30
2021,06,27,05,25,23.30
2021,06,27,05,26,23.30
2021,06,27,05,27,23.30
2021,06,27,05,28,23.30
2021,06,27,05,29,23.20
2021,06,27,05,30,23.20
2021,06,27,05,31,23.10
2021,06,27,05,32,23.00
2021,06,27,05,33,22.90
2021,06,27,05,34,22.90
2021,06,27,05,35,22.80
2021,06,27,05,36,22.80
2021,06,27,05,37,22.80
2021,06,27,05,38,22.70
2021,06,27,05,39,22.70
2021,06,27,05,40,22.70
2021,06,27,05,41,22.70
2021,06,27,05,42,22.70
2021,06,27,05,43,22.60
2021,06,27,05,44,22.60
2021,06,27,05,45,22.60
2021,06,27,05,46,22.60
2021,06,27,05,47,22.60
2021,06,27,05,48,22.60
2021,06,27,05,49,22.60
2021,06,27,05,50,22.60
2021,06,27,05,51,22.50
2021,06,27,05,52,22.50
2021,06,27,05,53,22.50
2021,06,27,05,54,22.50
2021,06,27,05,55,22.50
2021,06,27,05,56,22.50
2021,06,27,05,57,22.60
2021,06,27,05,58,22.60
2021,06,27,05,59,22.60
2021,06,27,06,00,22.60
2021,06,27,06,01,22.60
2021,06,27,06,02,22.70
2021,06,27,06,03,22.70
2021,06,27,06,04,22.70
2021,06,27,06,05,22.70
2021,06,27,06,06,22.70
2021,06,27,06,07,22.70
2021,06,27,06,08,22.80
2021,06,27,06,09,22.80
2021,06,27,06,10,22.80
2021,06,27,06,11,22.90
2021,06,27,06,12,22.90
2021,06,27,06,13,22.90
2021,06,27,06,14,23.00
2021,06,27,06,15,23.00
2021,06,27,06,16,23.00
2021,06,27,06,17,23.10
2021,06,27,06,18,23.10
2021,06,27,06,19,23.10
2021,06,27,06,20,23.10
2021,06,27,06,21,23.20
2021,06,27,06,22,23.20
2021,06,27,06,23,23.30
2021,06,27,06,24,23.30
2021,06,27,06,25,23.40
2021,06,27,06,26,23.40
2021,06,27,06,27,23.50
2021,06,27,06,28,23.50
2021,06,27,06,29,23.60
2021,06,27,06,30,23.60
2021,06,27,06,31,23.60
2021,06,27,06,32,23.70
2021,06,27,06,33,23.70
2021,06,27,06,34,23.80
2021,06,27,06,35,23.80
2021,06,27,06,36,23.80
2021,06,27,06,37,23.90
2021,06,27,06,38,23.90
2021,06,27,06,39,23.90
2021,06,27,06,40,24.00
2021,06,27,06,41,24.00
2021,06,27,06,42,24.00
2021,06,27,06,43,24.00
2021,06,27,06,44,24.10
2021,06,27,06,45,24.10
2021,06,27,06,46,24.10
2021,06,27,06,47,24.10
2021,06,27,06,48,24.10
2021,06,27,06,49,24.10
2021,06,27,06,50,24.10
2021,06,27,06,51,24.10
2021,06,27,06,52,24.10
2021,06,27,06,53,24.10
2021,06,27,06,54,24.10
2021,06,27,06,55,24.20
2021,06,27,06,56,24.20
2021,06,27,06,57,24.20
2021,06,27,06,58,24.30
2021,06,27,06,59,24.30
2021,06,27,07,00,24.30
2021,06,27,07,01,24.40
2021,06,27,07,02,24.40
2021,06,27,07,03,24.50
2021,06,27,07,04,24.50
2021,06,27,07,05,24.60
2021,06,27,07,06,24.60
2021,06,27,07,07,24.60
2021,06,27,07,08,24.70
2021,06,27,07,09,24.70
2021,06,27,07,10,24.80
2021,06,27,07,11,24.80
2021,06,27,07,12,24.90
2021,06,27,07,13,24.90
2021,06,27,07,14,25.00
2021,06,27,07,15,25.10
2021,06,27,07,16,25.10
2021,06,27,07,17,25.20
2021,06,27,07,18,25.30
2021,06,27,07,19,25.40
2021,06,27,07,20,25.40
2021,06,27,07,21,25.50
2021,06,27,07,22,25.60
2021,06,27,07,23,25.60
2021,06,27,07,24,25.70
2021,06,27,07,25,25.70
2021,06,27,07,26,25.80
2021,06,27,07,27,25.80
2021,06,27,07,28,25.80
2021,06,27,07,29,25.80
2021,06,27,07,30,25.80
2021,06,27,07,31,25.90
2021,06,27,07,32,25.90
2021,06,27,07,33,25.90
2021,06,27,07,34,25.90
2021,06,27,07,35,26.00
2021,06,27,07,36,26.00
2021,06,27,07,37,26.00
2021,06,27,07,38,26.00
2021,06,27,07,39,26.10
2021,06,27,07,40,26.10
2021,06,27,07,41,26.10
2021,06,27,07,42,26.10
2021,06,27,07,43,26.10
2021,06,27,07,44,26.10
2021,06,27,07,45,26.10
2021,06,27,07,46,26.20
2021,06,27,07,47,26.20
2021,06,27,07,48,26.20
2021,06,27,07,49,26.30
2021,06,27,07,50,26.30
2021,06,27,07,51,26.30
2021,06,27,07,52,26.40
2021,06,27,07,53,26.40
2021,06,27,07,54,26.50
2021,06,27,07,55,26.50
2021,06,27,07,56,26.60
2021,06,27,07,57,26.60
2021,06,27,07,58,26.70
2021,06,27,07,59,26.70
2021,06,27,08,00,26.70
2021,06,27,08,01,26.80
2021,06,27,08,02,26.80
2021,06,27,08,03,26.90
2021,06,27,08,04,26.90
2021,06,27,08,05,27.00
2021,06,27,08,06,27.00
2021,06,27,08,07,27.10
2021,06,27,08,08,27.10
2021,06,27,08,09,27.10
2021,06,27,08,10,27.20
2021,06,27,08,11,27.20
2021,06,27,08,12,27.30
2021,06,27,08,13,27.40
2021,06,27,08,14,27.40
2021,06,27,08,15,27.50
2021,06,27,08,16,27.60
2021,06,27,08,17,27.70
2021,06,27,08,18,27.70
2021,06,27,08,19,27.80
2021,06,27,08,20,27.90
2021,06,27,08,21,28.00
2021,06,27,08,22,28.10
2021,06,27,08,23,28.20
2021,06,27,08,24,28.30
2021,06,27,08,25,28.30
2021,06,27,08,26,28.40
2021,06,27,08,27,28.40
2021,06,27,08,28,28.50
2021,06,27,08,29,28.60
2021,06,27,08,30,28.60
2021,06,27,08,31,28.70
2021,06,27,08,32,28.70
2021,06,27,08,33,28.70
2021,06,27,08,34,28.70
2021,06,27,08,35,28.80
2021,06,27,08,36,28.80
2021,06,27,08,37,28.90
2021,06,27,08,38,28.90
2021,06,27,08,39,29.00
2021,06,27,08,40,29.10
2021,06,27,08,41,29.10
2021,06,27,08,42,29.20
2021,06,27,08,43,29.20
2021,06,27,08,44,29.20
2021,06,27,08,45,29.20
2021,06,27,08,46,29.20
2021,06,27,08,47,29.20
2021,06,27,08,48,29.20
2021,06,27,08,49,29.20
2021,06,27,08,50,29.20
2021,06,27,08,51,29.20
2021,06,27,08,52,29.10
2021,06,27,08,53,29.10
2021,06,27,08,54,29.20
2021,06,27,08,55,29.20
2021,06,27,08,56,29.20
2021,06,27,08,57,29.30
2021,06,27,08,58,29.30
2021,06,27,08,59,29.40
2021,06,27,09,00,29.40
2021,06,27,09,01,29.40
2021,06,27,09,02,29.40
2021,06,27,09,03,29.40
2021,06,27,09,04,29.40
2021,06,27,09,05,29.50
2021,06,27,09,06,29.60
2021,06,27,09,07,29.60
2021,06,27,09,08,29.70
2021,06,27,09,09,29.70
2021,06,27,09,10,29.70
2021,06,27,09,11,29.70
2021,06,27,09,12,29.70
2021,06,27,09,13,29.70
2021,06,27,09,14,29.70
2021,06,27,09,15,29.60
2021,06,27,09,16,29.60
2021,06,27,09,17,29.70
2021,06,27,09,18,29.70
2021,06,27,09,19,29.80
2021,06,27,09,20,29.80
2021,06,27,09,21,29.90
2021,06,27,09,22,30.00
2021,06,27,09,23,30.10
2021,06,27,09,24,30.10
2021,06,27,09,25,30.10
2021,06,27,09,26,30.10
2021,06,27,09,27,30.00
2021,06,27,09,28,30.00
2021,06,27,09,29,29.90
2021,06,27,09,30,29.90
2021,06,27,09,31,29.90
2021,06,27,09,32,29.90
2021,06,27,09,33,30.00
2021,06,27,09,34,30.10
2021,06,27,09,35,30.20
2021,06,27,09,36,30.20
2021,06,27,09,37,30.30
2021,06,27,09,38,30.40
2021,06,27,09,39,30.40
2021,06,27,09,40,30.40
2021,06,27,09,41,30.50
2021,06,27,09,42,30.50
2021,06,27,09,43,30.50
2021,06,27,09,44,30.50
2021,06,27,09,45,30.40
2021,06,27,09,46,30.40
2021,06,27,09,47,30.30
2021,06,27,09,48,30.30
2021,06,27,09,49,30.20
2021,06,27,09,50,30.20
2021,06,27,09,51,30.10
2021,06,27,09,52,30.10
2021,06,27,09,53,30.10
2021,06,27,09,54,30.00
2021,06,27,09,55,30.00
2021,06,27,09,56,30.00
2021,06,27,09,57,30.00
2021,06,27,09,58,30.00
2021,06,27,09,59,30.00
2021,06,27,10,00,30.00
2021,06,27,10,01,29.90
2021,06,27,10,02,29.90
2021,06,27,10,03,29.80
2021,06,27,10,04,29.70
2021,06,27,10,05,29.70
2021,06,27,10,06,29.70
2021,06,27,10,07,29.70
2021,06,27,10,08,29.60
2021,06,27,10,09,29.60
2021,06,27,10,10,29.50
2021,06,27,10,11,29.50
2021,06,27,10,12,29.40
2021,06,27,10,13,29.30
2021,06,27,10,14,29.30
2021,06,27,10,15,29.30
2021,06,27,10,16,29.30
2021,06,27,10,17,29.30
2021,06,27,10,18,29.20
2021,06,27,10,19,29.30
2021,06,27,10,20,29.30
2021,06,27,10,21,29.30
2021,06,27,10,22,29.30
2021,06,27,10,23,29.40
2021,06,27,10,24,29.50
2021,06,27,10,25,29.50
2021,06,27,10,26,29.50
2021,06,27,10,27,29.50
2021,06,27,10,28,29.60
2021,06,27,10,29,29.60
2021,06,27,10,30,29.70
2021,06,27,10,31,29.80
2021,06,27,10,32,29.80
2021,06,27,10,33,29.90
2021,06,27,10,34,29.90
2021,06,27,10,35,29.90
2021,06,27,10,36,30.00
2021,06,27,10,37,30.00
2021,06,27,10,38,29.90
2021,06,27,10,39,29.90
2021,06,27,10,40,29.90
2021,06,27,10,41,29.90
2021,06,27,10,42,29.90
2021,06,27,10,43,29.90
2021,06,27,10,44,29.90
2021,06,27,10,45,29.90
2021,06,27,10,46,29.80
2021,06,27,10,47,29.80
2021,06,27,10,48,29.90
2021,06,27,10,49,29.90
2021,06,27,10,50,29.90
2021,06,27,10,51,30.00
2021,06,27,10,52,30.00
2021,06,27,10,53,30.10
2021,06,27,10,54,30.10
2021,06,27,10,55,30.10
2021,06,27,10,56,30.10
2021,06,27,10,57,30.10
2021,06,27,10,58,30.10
2021,06,27,10,59,30.10
2021,06,27,11,00,30.20
2021,06,27,11,01,30.20
2021,06,27,11,02,30.20
2021,06,27,11,03,30.20
2021,06,27,11,04,30.30
2021,06,27,11,05,30.30
2021,06,27,11,06,30.40
2021,06,27,11,07,30.40
2021,06,27,11,08,30.40
2021,06,27,11,09,30.30
2021,06,27,11,10,30.30
2021,06,27,11,11,30.30
2021,06,27,11,12,30.30
2021,06,27,11,13,30.30
2021,06,27,11,14,30.30
2021,06,27,11,15,30.40
2021,06,27,11,16,30.40
2021,06,27,11,17,30.50
2021,06,27,11,18,30.60
2021,06,27,11,19,30.70
2021,06,27,11,20,30.70
2021,06,27,11,21,30.70
2021,06,27,11,22,30.80
2021,06,27,11,23,30.80
2021,06,27,11,24,30.90
2021,06,27,11,25,31.00
2021,06,27,11,26,31.10
2021,06,27,11,27,31.20
2021,06,27,11,28,31.30
2021,06,27,11,29,31.30
2021,06,27,11,30,31.40
2021,06,27,11,31,31.40
2021,06,27,11,32,31.40
2021,06,27,11,33,31.40
2021,06,27,11,34,31.40
2021,06,27,11,35,31.50
2021,06,27,11,36,31.60
2021,06,27,11,37,31.70
2021,06,27,11,38,31.70
2021,06,27,11,39,31.70
2021,06,27,11,40,31.80
2021,06,27,11,41,31.80
2021,06,27,11,42,31.80
2021,06,27,11,43,31.80
2021,06,27,11,44,31.80
2021,06,27,11,45,31.90
2021,06,27,11,46,32.00
2021,06,27,11,47,32.00
2021,06,27,11,48,32.10
2021,06,27,11,49,32.20
2021,06,27,11,50,32.30
2021,06,27,11,51,32.40
2021,06,27,11,52,32.50
2021,06,27,11,53,32.50
2021,06,27,11,54,32.40
2021,06,27,11,55,32.40
2021,06,27,11,56,32.40
2021,06,27,11,57,32.30
2021,06,27,11,58,32.30
2021,06,27,11,59,32.30
2021,06,27,12,00,32.40
2021,06,27,12,01,32.40
2021,06,27,12,02,32.40
2021,06,27,12,03,32.50
2021,06,27,12,04,32.60
2021,06,27,12,05,32.70
2021,06,27,12,06,32.80
2021,06,27,12,07,32.90
2021,06,27,12,08,32.90
2021,06,27,12,09,32.90
2021,06,27,12,10,33.00
2021,06,27,12,11,33.10
2021,06,27,12,12,33.20
2021,06,27,12,13,33.30
2021,06,27,12,14,33.30
2021,06,27,12,15,33.40
2021,06,27,12,16,33.40
2021,06,27,12,17,33.40
2021,06,27,12,18,33.40
2021,06,27,12,19,33.40
2021,06,27,12,20,33.50
2021,06,27,12,21,33.60
2021,06,27,12,22,33.60
2021,06,27,12,23,33.60
2021,06,27,12,24,33.60
2021,06,27,12,25,33.60
2021,06,27,12,26,33.60
2021,06,27,12,27,33.70
2021,06,27,12,28,33.70
2021,06,27,12,29,33.80
2021,06,27,12,30,33.80
2021,06,27,12,31,33.80
2021,06,27,12,32,33.80
2021,06,27,12,33,33.70
2021,06,27,12,34,33.70
2021,06,27,12,35,33.70
2021,06,27,12,36,33.80
2021,06,27,12,37,33.80
2021,06,27,12,38,33.80
2021,06,27,12,39,33.80
2021,06,27,12,40,33.90
2021,06,27,12,41,33.90
2021,06,27,12,42,33.90
2021,06,27,12,43,34.00
2021,06,27,12,44,34.00
2021,06,27,12,45,34.00
2021,06,27,12,46,33.90
2021,06,27,12,47,33.90
2021,06,27,12,48,33.90
2021,06,27,12,49,34.00
2021,06,27,12,50,34.00
2021,06,27,12,51,34.00
2021,06,27,12,52,33.90
2021,06,27,12,53,33.90
2021,06,27,12,54,33.80
2021,06,27,12,55,33.80
2021,06,27,12,56,33.80
2021,06,27,12,57,33.80
2021,06,27,12,58,33.80
2021,06,27,12,59,33.80
2021,06,27,13,00,33.80
2021,06,27,13,01,33.80
2021,06,27,13,02,33.70
2021,06,27,13,03,33.70
2021,06,27,13,04,33.60
2021,06,27,13,05,33.60
2021,06,27,13,06,33.70
2021,06,27,13,07,33.70
2021,06,27,13,08,33.70
2021,06,27,13,09,33.70
2021,06,27,13,10,33.60
2021,06,27,13,11,33.60
2021,06,27,13,12,33.60
2021,06,27,13,13,33.60
2021,06,27,13,14,33.60
2021,06,27,13,15,33.60
2021,06,27,13,16,33.60
2021,06,27,13,17,33.60
2021,06,27,13,18,33.60
2021,06,27,13,19,33.60
2021,06,27,13,20,33.70
2021,06,27,13,21,33.70
2021,06,27,13,22,33.70
2021,06,27,13,23,33.80
2021,06,27,13,24,33.80
2021,06,27,13,25,33.80
2021,06,27,13,26,33.80
2021,06,27,13,27,33.90
2021,06,27,13,28,33.90
2021,06,27,13,29,33.90
2021,06,27,13,30,33.90
2021,06,27,13,31,33.90
2021,06,27,13,32,33.90
2021,06,27,13,33,33.90
2021,06,27,13,34,34.00
2021,06,27,13,35,34.00
2021,06,27,13,36,34.10
2021,06,27,13,37,34.10
2021,06,27,13,38,34.10
2021,06,27,13,39,34.20
2021,06,27,13,40,34.20
2021,06,27,13,41,34.20
2021,06,27,13,42,34.20
2021,06,27,13,43,34.30
2021,06,27,13,44,34.30
2021,06,27,13,45,34.30
2021,06,27,13,46,34.40
2021,06,27,13,47,34.40
2021,06,27,13,48,34.50
2021,06,27,13,49,34.50
2021,06,27,13,50,34.50
2021,06,27,13,51,34.50
2021,06,27,13,52,34.60
2021,06,27,13,53,34.70
2021,06,27,13,54,34.70
2021,06,27,13,55,34.70
2021,06,27,13,56,34.80
2021,06,27,13,57,34.80
2021,06,27,13,58,34.90
2021,06,27,13,59,35.00
2021,06,27,14,00,35.10
2021,06,27,14,01,35.20
2021,06,27,14,02,35.30
2021,06,27,14,03,35.40
2021,06,27,14,04,35.40
2021,06,27,14,05,35.40
2021,06,27,14,06,35.50
2021,06,27,14,07,35.50
2021,06,27,14,08,35.60
2021,06,27,14,09,35.50
2021,06,27,14,10,35.50
2021,06,27,14,11,35.40
2021,06,27,14,12,35.40
2021,06,27,14,13,35.30
2021,06,27,14,14,35.30
2021,06,27,14,15,35.30
2021,06,27,14,16,35.30
2021,06,27,14,17,35.30
2021,06,27,14,18,35.20
2021,06,27,14,19,35.20
2021,06,27,14,20,35.10
2021,06,27,14,21,35.10
2021,06,27,14,22,35.20
2021,06,27,14,23,35.20
2021,06,27,14,24,35.30
2021,06,27,14,25,35.40
2021,06,27,14,26,35.50
2021,06,27,14,27,35.60
2021,06,27,14,28,35.70
2021,06,27,14,29,35.70
2021,06,27,14,30,35.60
2021,06,27,14,31,35.60
2021,06,27,14,32,35.70
2021,06,27,14,33,35.70
2021,06,27,14,34,35.70
2021,06,27,14,35,35.80
2021,06,27,14,36,35.80
2021,06,27,14,37,35.80
2021,06,27,14,38,35.70
2021,06,27,14,39,35.60
2021,06,27,14,40,35.50
2021,06,27,14,41,35.40
2021,06,27,14,42,35.40
2021,06,27,14,43,35.40
2021,06,27,14,44,35.40
2021,06,27,14,45,35.30
2021,06,27,14,46,35.30
2021,06,27,14,47,35.30
2021,06,27,14,48,35.30
2021,06,27,14,49,35.30
2021,06,27,14,50,35.30
2021,06,27,14,51,35.20
2021,06,27,14,52,35.20
2021,06,27,14,53,35.20
2021,06,27,14,54,35.20
2021,06,27,14,55,35.20
2021,06,27,14,56,35.10
2021,06,27,14,57,35.20
2021,06,27,14,58,35.20
2021,06,27,14,59,35.20
2021,06,27,15,00,35.20
2021,06,27,15,01,35.20
2021,06,27,15,02,35.20
2021,06,27,15,03,35.30
2021,06,27,15,04,35.30
2021,06,27,15,05,35.30
2021,06,27,15,06,35.40
2021,06,27,15,07,35.40
2021,06,27,15,08,35.40
2021,06,27,15,09,35.50
2021,06,27,15,10,35.60
2021,06,27,15,11,35.60
2021,06,27,15,12,35.60
2021,06,27,15,13,35.70
2021,06,27,15,14,35.70
2021,06,27,15,15,35.80
2021,06,27,15,16,35.90
2021,06,27,15,17,35.90
2021,06,27,15,18,35.90
2021,06,27,15,19,35.90
2021,06,27,15,20,36.00
2021,06,27,15,21,36.10
2021,06,27,15,22,36.10
2021,06,27,15,23,36.10
2021,06,27,15,24,36.10
2021,06,27,15,25,36.10
2021,06,27,15,26,36.10
2021,06,27,15,27,36.10
2021,06,27,15,28,36.20
2021,06,27,15,29,36.30
2021,06,27,15,30,36.40
2021,06,27,15,31,36.40
2021,06,27,15,32,36.50
2021,06,27,15,33,36.70
2021,06,27,15,34,36.80
2021,06,27,15,35,36.90
2021,06,27,15,36,36.90
2021,06,27,15,37,36.90
2021,06,27,15,38,36.90
2021,06,27,15,39,36.90
2021,06,27,15,40,36.80
2021,06,27,15,41,36.70
2021,06,27,15,42,36.70
2021,06,27,15,43,36.70
2021,06,27,15,44,36.70
2021,06,27,15,45,36.70
2021,06,27,15,46,36.70
2021,06,27,15,47,36.70
2021,06,27,15,48,36.70
2021,06,27,15,49,36.70
2021,06,27,15,50,36.70
2021,06,27,15,51,36.70
2021,06,27,15,52,36.70
2021,06,27,15,53,36.70
2021,06,27,15,54,36.70
2021,06,27,15,55,36.70
2021,06,27,15,56,36.80
2021,06,27,15,57,36.80
2021,06,27,15,58,36.80
2021,06,27,15,59,36.90
2021,06,27,16,00,36.80
2021,06,27,16,01,36.80
2021,06,27,16,02,36.80
2021,06,27,16,03,36.80
2021,06,27,16,04,36.80
2021,06,27,16,05,36.70
2021,06,27,16,06,36.70
2021,06,27,16,07,36.50
2021,06,27,16,08,36.50
2021,06,27,16,09,36.40
2021,06,27,16,10,36.40
2021,06,27,16,11,36.40
2021,06,27,16,12,36.40
2021,06,27,16,13,36.40
2021,06,27,16,14,36.40
2021,06,27,16,15,36.50
2021,06,27,16,16,36.50
2021,06,27,16,17,36.60
2021,06,27,16,18,36.60
2021,06,27,16,19,36.60
2021,06,27,16,20,36.60
2021,06,27,16,21,36.60
2021,06,27,16,22,36.70
2021,06,27,16,23,36.70
2021,06,27,16,24,36.70
2021,06,27,16,25,36.70
2021,06,27,16,26,36.70
2021,06,27,16,27,36.70
2021,06,27,16,28,36.70
2021,06,27,16,29,36.60
2021,06,27,16,30,36.60
2021,06,27,16,31,36.50
2021,06,27,16,32,36.40
2021,06,27,16,33,36.40
2021,06,27,16,34,36.30
2021,06,27,16,35,36.30
2021,06,27,16,36,36.30
2021,06,27,16,37,36.30
2021,06,27,16,38,36.40
2021,06,27,16,39,36.40
2021,06,27,16,40,36.50
2021,06,27,16,41,36.50
2021,06,27,16,42,36.50
2021,06,27,16,43,36.60
2021,06,27,16,44,36.50
2021,06,27,16,45,36.40
2021,06,27,16,46,36.40
2021,06,27,16,47,36.40
2021,06,27,16,48,36.40
2021,06,27,16,49,36.40
2021,06,27,16,50,36.40
2021,06,27,16,51,36.40
2021,06,27,16,52,36.50
2021,06,27,16,53,36.60
2021,06,27,16,54,36.60
2021,06,27,16,55,36.60
2021,06,27,16,56,36.60
2021,06,27,16,57,36.50
2021,06,27,16,58,36.50
2021,06,27,16,59,36.40
2021,06,27,17,00,36.40
2021,06,27,17,01,36.40
2021,06,27,17,02,36.40
2021,06,27,17,03,36.40
2021,06,27,17,04,36.40
2021,06,27,17,05,36.40
2021,06,27,17,06,36.40
2021,06,27,17,07,36.40
2021,06,27,17,08,36.40
2021,06,27,17,09,36.50
2021,06,27,17,10,36.50
2021,06,27,17,11,36.50
2021,06,27,17,12,36.60
2021,06,27,17,13,36.60
2021,06,27,17,14,36.60
2021,06,27,17,15,36.60
2021,06,27,17,16,36.60
2021,06,27,17,17,36.60
2021,06,27,17,18,36.70
2021,06,27,17,19,36.70